Year,Month,Day,Hour,Minute,Value (Times are PST for temperature in C)
2014,08,25,00,00,14.10
2014,08,25,00,04,14.10
2014,08,25,00,05,14.10
2014,08,25,00,06,14.10
2014,08,25,00,07,14.10
2014,08,25,00,08,14.10
2014,08,25,00,09,14.10
2014,08,25,00,10,14.10
2014,08,25,00,11,14.10
2014,08,25,00,12,14.10
2014,08,25,00,13,14.10
2014,08,25,00,14,14.10
2014,08,25,00,15,14.10
2014,08,25,00,19,14.30
2014,08,25,00,20,14.30
2014,08,25,00,21,14.30
2014,08,25,00,22,14.30
2014,08,25,00,23,14.30
2014,08,25,00,24,14.30
2014,08,25,00,25,14.30
2014,08,25,00,26,14.30
2014,08,25,00,27,14.30
2014,08,25,00,28,14.30
2014,08,25,00,29,14.30
2014,08,25,00,30,14.30
2014,08,25,00,34,14.30
2014,08,25,00,35,14.30
2014,08,25,00,36,14.30
2014,08,25,00,37,14.30
2014,08,25,00,38,14.30
2014,08,25,00,39,14.30
2014,08,25,00,40,14.30
2014,08,25,00,41,14.30
2014,08,25,00,42,14.30
2014,08,25,00,43,14.30
2014,08,25,00,44,14.30
2014,08,25,00,45,14.30
2014,08,25,00,49,14.30
2014,08,25,00,50,14.30
2014,08,25,00,51,14.30
2014,08,25,00,52,14.30
2014,08,25,00,53,14.30
2014,08,25,00,54,14.30
2014,08,25,00,55,14.30
2014,08,25,00,56,14.30
2014,08,25,00,57,14.30
2014,08,25,00,58,14.30
2014,08,25,00,59,14.30
2014,08,25,01,00,14.30
2014,08,25,01,04,14.60
2014,08,25,01,05,14.60
2014,08,25,01,06,14.60
2014,08,25,01,07,14.60
2014,08,25,01,08,14.60
2014,08,25,01,09,14.60
2014,08,25,01,10,14.60
2014,08,25,01,11,14.60
2014,08,25,01,12,14.60
2014,08,25,01,13,14.60
2014,08,25,01,14,14.60
2014,08,25,01,15,14.60
2014,08,25,01,19,14.40
2014,08,25,01,20,14.40
2014,08,25,01,21,14.40
2014,08,25,01,22,14.40
2014,08,25,01,23,14.40
2014,08,25,01,24,14.40
2014,08,25,01,25,14.40
2014,08,25,01,26,14.40
2014,08,25,01,27,14.40
2014,08,25,01,28,14.40
2014,08,25,01,29,14.40
2014,08,25,01,30,14.40
2014,08,25,01,34,14.10
2014,08,25,01,35,14.10
2014,08,25,01,36,14.10
2014,08,25,01,37,14.10
2014,08,25,01,38,14.10
2014,08,25,01,39,14.10
2014,08,25,01,40,14.10
2014,08,25,01,41,14.10
2014,08,25,01,42,14.10
2014,08,25,01,43,14.10
2014,08,25,01,44,14.10
2014,08,25,01,45,14.10
2014,08,25,01,49,13.90
2014,08,25,01,50,13.90
2014,08,25,01,51,13.90
2014,08,25,01,52,13.90
2014,08,25,01,53,13.90
2014,08,25,01,54,13.90
2014,08,25,01,55,13.90
2014,08,25,01,56,13.90
2014,08,25,01,57,13.90
2014,08,25,01,58,13.90
2014,08,25,01,59,13.90
2014,08,25,02,00,13.90
2014,08,25,02,04,14.20
2014,08,25,02,05,14.20
2014,08,25,02,06,14.20
2014,08,25,02,07,14.20
2014,08,25,02,08,14.20
2014,08,25,02,09,14.20
2014,08,25,02,10,14.20
2014,08,25,02,11,14.20
2014,08,25,02,12,14.20
2014,08,25,02,13,14.20
2014,08,25,02,14,14.20
2014,08,25,02,15,14.20
2014,08,25,02,19,14.10
2014,08,25,02,20,14.10
2014,08,25,02,21,14.10
2014,08,25,02,22,14.10
2014,08,25,02,23,14.10
2014,08,25,02,24,14.10
2014,08,25,02,25,14.10
2014,08,25,02,26,14.10
2014,08,25,02,27,14.10
2014,08,25,02,28,14.10
2014,08,25,02,29,14.10
2014,08,25,02,30,14.10
2014,08,25,02,34,14.10
2014,08,25,02,35,14.10
2014,08,25,02,36,14.10
2014,08,25,02,37,14.10
2014,08,25,02,38,14.10
2014,08,25,02,39,14.10
2014,08,25,02,40,14.10
2014,08,25,02,41,14.10
2014,08,25,02,42,14.10
2014,08,25,02,43,14.10
2014,08,25,02,44,14.10
2014,08,25,02,45,14.10
2014,08,25,02,49,13.70
2014,08,25,02,50,13.70
2014,08,25,02,51,13.70
2014,08,25,02,52,13.70
2014,08,25,02,53,13.70
2014,08,25,02,54,13.70
2014,08,25,02,55,13.70
2014,08,25,02,56,13.70
2014,08,25,02,57,13.70
2014,08,25,02,58,13.70
2014,08,25,02,59,13.70
2014,08,25,03,00,13.70
2014,08,25,03,04,13.80
2014,08,25,03,05,13.80
2014,08,25,03,06,13.80
2014,08,25,03,07,13.80
2014,08,25,03,08,13.80
2014,08,25,03,09,13.80
2014,08,25,03,10,13.80
2014,08,25,03,11,13.80
2014,08,25,03,12,13.80
2014,08,25,03,13,13.80
2014,08,25,03,14,13.80
2014,08,25,03,15,13.80
2014,08,25,03,19,13.70
2014,08,25,03,20,13.70
2014,08,25,03,21,13.70
2014,08,25,03,22,13.70
2014,08,25,03,23,13.70
2014,08,25,03,24,13.70
2014,08,25,03,25,13.70
2014,08,25,03,26,13.70
2014,08,25,03,27,13.70
2014,08,25,03,28,13.70
2014,08,25,03,29,13.70
2014,08,25,03,30,13.70
2014,08,25,03,34,13.80
2014,08,25,03,35,13.80
2014,08,25,03,36,13.80
2014,08,25,03,37,13.80
2014,08,25,03,38,13.80
2014,08,25,03,39,13.80
2014,08,25,03,40,13.80
2014,08,25,03,41,13.80
2014,08,25,03,42,13.80
2014,08,25,03,43,13.80
2014,08,25,03,44,13.80
2014,08,25,03,45,13.80
2014,08,25,03,49,13.60
2014,08,25,03,50,13.60
2014,08,25,03,51,13.60
2014,08,25,03,52,13.60
2014,08,25,03,53,13.60
2014,08,25,03,54,13.60
2014,08,25,03,55,13.60
2014,08,25,03,56,13.60
2014,08,25,03,57,13.60
2014,08,25,03,58,13.60
2014,08,25,03,59,13.60
2014,08,25,04,00,13.60
2014,08,25,04,04,13.50
2014,08,25,04,05,13.50
2014,08,25,04,06,13.50
2014,08,25,04,07,13.50
2014,08,25,04,08,13.50
2014,08,25,04,09,13.50
2014,08,25,04,10,13.50
2014,08,25,04,11,13.50
2014,08,25,04,12,13.50
2014,08,25,04,13,13.50
2014,08,25,04,14,13.50
2014,08,25,04,15,13.50
2014,08,25,04,19,13.40
2014,08,25,04,20,13.40
2014,08,25,04,21,13.40
2014,08,25,04,22,13.40
2014,08,25,04,23,13.40
2014,08,25,04,24,13.40
2014,08,25,04,25,13.40
2014,08,25,04,26,13.40
2014,08,25,04,27,13.40
2014,08,25,04,28,13.40
2014,08,25,04,29,13.40
2014,08,25,04,30,13.40
2014,08,25,04,34,13.70
2014,08,25,04,35,13.70
2014,08,25,04,36,13.70
2014,08,25,04,37,13.70
2014,08,25,04,38,13.70
2014,08,25,04,39,13.70
2014,08,25,04,40,13.70
2014,08,25,04,41,13.70
2014,08,25,04,42,13.70
2014,08,25,04,43,13.70
2014,08,25,04,44,13.70
2014,08,25,04,45,13.70
2014,08,25,04,49,13.70
2014,08,25,04,50,13.70
2014,08,25,04,51,13.70
2014,08,25,04,52,13.70
2014,08,25,04,53,13.70
2014,08,25,04,54,13.70
2014,08,25,04,55,13.70
2014,08,25,04,56,13.70
2014,08,25,04,57,13.70
2014,08,25,04,58,13.70
2014,08,25,04,59,13.70
2014,08,25,05,00,13.70
2014,08,25,05,04,13.70
2014,08,25,05,05,13.70
2014,08,25,05,06,13.70
2014,08,25,05,07,13.70
2014,08,25,05,08,13.70
2014,08,25,05,09,13.70
2014,08,25,05,10,13.70
2014,08,25,05,11,13.70
2014,08,25,05,12,13.70
2014,08,25,05,13,13.70
2014,08,25,05,14,13.70
2014,08,25,05,15,13.70
2014,08,25,05,19,13.70
2014,08,25,05,20,13.70
2014,08,25,05,21,13.70
2014,08,25,05,22,13.70
2014,08,25,05,23,13.70
2014,08,25,05,24,13.70
2014,08,25,05,25,13.70
2014,08,25,05,26,13.70
2014,08,25,05,27,13.70
2014,08,25,05,28,13.70
2014,08,25,05,29,13.70
2014,08,25,05,30,13.70
2014,08,25,05,34,13.70
2014,08,25,05,35,13.70
2014,08,25,05,36,13.70
2014,08,25,05,37,13.70
2014,08,25,05,38,13.70
2014,08,25,05,39,13.70
2014,08,25,05,40,13.70
2014,08,25,05,41,13.70
2014,08,25,05,42,13.70
2014,08,25,05,43,13.70
2014,08,25,05,44,13.70
2014,08,25,05,45,13.70
2014,08,25,05,49,13.80
2014,08,25,05,50,13.80
2014,08,25,05,51,13.80
2014,08,25,05,52,13.80
2014,08,25,05,53,13.80
2014,08,25,05,54,13.80
2014,08,25,05,55,13.80
2014,08,25,05,56,13.80
2014,08,25,05,57,13.80
2014,08,25,05,58,13.80
2014,08,25,05,59,13.80
2014,08,25,06,00,13.80
2014,08,25,06,04,13.80
2014,08,25,06,05,13.80
2014,08,25,06,06,13.80
2014,08,25,06,07,13.80
2014,08,25,06,08,13.80
2014,08,25,06,09,13.80
2014,08,25,06,10,13.80
2014,08,25,06,11,13.80
2014,08,25,06,12,13.80
2014,08,25,06,13,13.80
2014,08,25,06,14,13.80
2014,08,25,06,15,13.80
2014,08,25,06,19,13.70
2014,08,25,06,20,13.70
2014,08,25,06,21,13.70
2014,08,25,06,22,13.70
2014,08,25,06,23,13.70
2014,08,25,06,24,13.70
2014,08,25,06,25,13.70
2014,08,25,06,26,13.70
2014,08,25,06,27,13.70
2014,08,25,06,28,13.70
2014,08,25,06,29,13.70
2014,08,25,06,30,13.70
2014,08,25,06,34,13.60
2014,08,25,06,35,13.60
2014,08,25,06,36,13.60
2014,08,25,06,37,13.60
2014,08,25,06,38,13.60
2014,08,25,06,39,13.60
2014,08,25,06,40,13.60
2014,08,25,06,41,13.60
2014,08,25,06,42,13.60
2014,08,25,06,43,13.60
2014,08,25,06,44,13.60
2014,08,25,06,45,13.60
2014,08,25,06,49,13.40
2014,08,25,06,50,13.40
2014,08,25,06,51,13.40
2014,08,25,06,52,13.40
2014,08,25,06,53,13.40
2014,08,25,06,54,13.40
2014,08,25,06,55,13.40
2014,08,25,06,56,13.40
2014,08,25,06,57,13.40
2014,08,25,06,58,13.40
2014,08,25,06,59,13.40
2014,08,25,07,00,13.40
2014,08,25,07,04,13.40
2014,08,25,07,05,13.40
2014,08,25,07,06,13.40
2014,08,25,07,07,13.40
2014,08,25,07,08,13.40
2014,08,25,07,09,13.40
2014,08,25,07,10,13.40
2014,08,25,07,11,13.40
2014,08,25,07,12,13.40
2014,08,25,07,13,13.40
2014,08,25,07,14,13.40
2014,08,25,07,15,13.40
2014,08,25,07,19,13.70
2014,08,25,07,20,13.70
2014,08,25,07,21,13.70
2014,08,25,07,22,13.70
2014,08,25,07,23,13.70
2014,08,25,07,24,13.70
2014,08,25,07,25,13.70
2014,08,25,07,26,13.70
2014,08,25,07,27,13.70
2014,08,25,07,28,13.70
2014,08,25,07,29,13.70
2014,08,25,07,30,13.70
2014,08,25,07,34,13.60
2014,08,25,07,35,13.60
2014,08,25,07,36,13.60
2014,08,25,07,37,13.60
2014,08,25,07,38,13.60
2014,08,25,07,39,13.60
2014,08,25,07,40,13.60
2014,08,25,07,41,13.60
2014,08,25,07,42,13.60
2014,08,25,07,43,13.60
2014,08,25,07,44,13.60
2014,08,25,07,45,13.60
2014,08,25,07,49,14.10
2014,08,25,07,50,14.10
2014,08,25,07,51,14.10
2014,08,25,07,52,14.10
2014,08,25,07,53,14.10
2014,08,25,07,54,14.10
2014,08,25,07,55,14.10
2014,08,25,07,56,14.10
2014,08,25,07,57,14.10
2014,08,25,07,58,14.10
2014,08,25,07,59,14.10
2014,08,25,08,00,14.10
2014,08,25,08,04,14.20
2014,08,25,08,05,14.20
2014,08,25,08,06,14.20
2014,08,25,08,07,14.20
2014,08,25,08,08,14.20
2014,08,25,08,09,14.20
2014,08,25,08,10,14.20
2014,08,25,08,11,14.20
2014,08,25,08,12,14.20
2014,08,25,08,13,14.20
2014,08,25,08,14,14.20
2014,08,25,08,15,14.20
2014,08,25,08,19,14.00
2014,08,25,08,20,14.00
2014,08,25,08,21,14.00
2014,08,25,08,22,14.00
2014,08,25,08,23,14.00
2014,08,25,08,24,14.00
2014,08,25,08,25,14.00
2014,08,25,08,26,14.00
2014,08,25,08,27,14.00
2014,08,25,08,28,14.00
2014,08,25,08,29,14.00
2014,08,25,08,30,14.00
2014,08,25,08,34,14.10
2014,08,25,08,35,14.10
2014,08,25,08,36,14.10
2014,08,25,08,37,14.10
2014,08,25,08,38,14.10
2014,08,25,08,39,14.10
2014,08,25,08,40,14.10
2014,08,25,08,41,14.10
2014,08,25,08,42,14.10
2014,08,25,08,43,14.10
2014,08,25,08,44,14.10
2014,08,25,08,45,14.10
2014,08,25,08,49,14.20
2014,08,25,08,50,14.20
2014,08,25,08,51,14.20
2014,08,25,08,52,14.20
2014,08,25,08,53,14.20
2014,08,25,08,54,14.20
2014,08,25,08,55,14.20
2014,08,25,08,56,14.20
2014,08,25,08,57,14.20
2014,08,25,08,58,14.20
2014,08,25,08,59,14.20
2014,08,25,09,00,14.20
2014,08,25,09,04,14.30
2014,08,25,09,05,14.30
2014,08,25,09,06,14.30
2014,08,25,09,07,14.30
2014,08,25,09,08,14.30
2014,08,25,09,09,14.30
2014,08,25,09,10,14.30
2014,08,25,09,11,14.30
2014,08,25,09,12,14.30
2014,08,25,09,13,14.30
2014,08,25,09,14,14.30
2014,08,25,09,15,14.30
2014,08,25,09,19,14.50
2014,08,25,09,20,14.50
2014,08,25,09,21,14.50
2014,08,25,09,22,14.50
2014,08,25,09,23,14.50
2014,08,25,09,24,14.50
2014,08,25,09,25,14.50
2014,08,25,09,26,14.50
2014,08,25,09,27,14.50
2014,08,25,09,28,14.50
2014,08,25,09,29,14.50
2014,08,25,09,30,14.50
2014,08,25,09,34,15.20
2014,08,25,09,35,15.20
2014,08,25,09,36,15.20
2014,08,25,09,37,15.20
2014,08,25,09,38,15.20
2014,08,25,09,39,15.20
2014,08,25,09,40,15.20
2014,08,25,09,41,15.20
2014,08,25,09,42,15.20
2014,08,25,09,43,15.20
2014,08,25,09,44,15.20
2014,08,25,09,45,15.20
2014,08,25,09,49,15.80
2014,08,25,09,50,15.80
2014,08,25,09,51,15.80
2014,08,25,09,52,15.80
2014,08,25,09,53,15.80
2014,08,25,09,54,15.80
2014,08,25,09,55,15.80
2014,08,25,09,56,15.80
2014,08,25,09,57,15.80
2014,08,25,09,58,15.80
2014,08,25,09,59,15.80
2014,08,25,10,00,15.80
2014,08,25,10,04,16.40
2014,08,25,10,05,16.40
2014,08,25,10,06,16.40
2014,08,25,10,07,16.40
2014,08,25,10,08,16.40
2014,08,25,10,09,16.40
2014,08,25,10,10,16.40
2014,08,25,10,11,16.40
2014,08,25,10,12,16.40
2014,08,25,10,13,16.40
2014,08,25,10,14,16.40
2014,08,25,10,15,16.40
2014,08,25,10,19,16.60
2014,08,25,10,20,16.60
2014,08,25,10,21,16.60
2014,08,25,10,22,16.60
2014,08,25,10,23,16.60
2014,08,25,10,24,16.60
2014,08,25,10,25,16.60
2014,08,25,10,26,16.60
2014,08,25,10,27,16.60
2014,08,25,10,28,16.60
2014,08,25,10,29,16.60
2014,08,25,10,30,16.60
2014,08,25,10,34,16.00
2014,08,25,10,35,16.00
2014,08,25,10,36,16.00
2014,08,25,10,37,16.00
2014,08,25,10,38,16.00
2014,08,25,10,39,16.00
2014,08,25,10,40,16.00
2014,08,25,10,41,16.00
2014,08,25,10,42,16.00
2014,08,25,10,43,16.00
2014,08,25,10,44,16.00
2014,08,25,10,45,16.00
2014,08,25,10,49,16.20
2014,08,25,10,50,16.20
2014,08,25,10,51,16.20
2014,08,25,10,52,16.20
2014,08,25,10,53,16.20
2014,08,25,10,54,16.20
2014,08,25,10,55,16.20
2014,08,25,10,56,16.20
2014,08,25,10,57,16.20
2014,08,25,10,58,16.20
2014,08,25,10,59,16.20
2014,08,25,11,00,16.20
2014,08,25,11,04,17.10
2014,08,25,11,05,17.10
2014,08,25,11,06,17.10
2014,08,25,11,07,17.10
2014,08,25,11,08,17.10
2014,08,25,11,09,17.10
2014,08,25,11,10,17.10
2014,08,25,11,11,17.10
2014,08,25,11,12,17.10
2014,08,25,11,13,17.10
2014,08,25,11,14,17.10
2014,08,25,11,15,17.10
2014,08,25,11,19,17.20
2014,08,25,11,20,17.20
2014,08,25,11,21,17.20
2014,08,25,11,22,17.20
2014,08,25,11,23,17.20
2014,08,25,11,24,17.20
2014,08,25,11,25,17.20
2014,08,25,11,26,17.20
2014,08,25,11,27,17.20
2014,08,25,11,28,17.20
2014,08,25,11,29,17.20
2014,08,25,11,30,17.20
2014,08,25,11,34,17.10
2014,08,25,11,35,17.10
2014,08,25,11,36,17.10
2014,08,25,11,37,17.10
2014,08,25,11,38,17.10
2014,08,25,11,39,17.10
2014,08,25,11,40,17.10
2014,08,25,11,41,17.10
2014,08,25,11,42,17.10
2014,08,25,11,43,17.10
2014,08,25,11,44,17.10
2014,08,25,11,45,17.10
2014,08,25,11,49,17.10
2014,08,25,11,50,17.10
2014,08,25,11,51,17.10
2014,08,25,11,52,17.10
2014,08,25,11,53,17.10
2014,08,25,11,54,17.10
2014,08,25,11,55,17.10
2014,08,25,11,56,17.10
2014,08,25,11,57,17.10
2014,08,25,11,58,17.10
2014,08,25,11,59,17.10
2014,08,25,12,00,17.10
2014,08,25,12,04,17.00
2014,08,25,12,05,17.00
2014,08,25,12,06,17.00
2014,08,25,12,07,17.00
2014,08,25,12,08,17.00
2014,08,25,12,09,17.00
2014,08,25,12,10,17.00
2014,08,25,12,11,17.00
2014,08,25,12,12,17.00
2014,08,25,12,13,17.00
2014,08,25,12,14,17.00
2014,08,25,12,15,17.00
2014,08,25,12,19,17.30
2014,08,25,12,20,17.30
2014,08,25,12,21,17.30
2014,08,25,12,22,17.30
2014,08,25,12,23,17.30
2014,08,25,12,24,17.30
2014,08,25,12,25,17.30
2014,08,25,12,26,17.30
2014,08,25,12,27,17.30
2014,08,25,12,28,17.30
2014,08,25,12,29,17.30
2014,08,25,12,30,17.30
2014,08,25,12,34,16.80
2014,08,25,12,35,16.80
2014,08,25,12,36,16.80
2014,08,25,12,37,16.80
2014,08,25,12,38,16.80
2014,08,25,12,39,16.80
2014,08,25,12,40,16.80
2014,08,25,12,41,16.80
2014,08,25,12,42,16.80
2014,08,25,12,43,16.80
2014,08,25,12,44,16.80
2014,08,25,12,45,16.80
2014,08,25,12,49,16.60
2014,08,25,12,50,16.60
2014,08,25,12,51,16.60
2014,08,25,12,52,16.60
2014,08,25,12,53,16.60
2014,08,25,12,54,16.60
2014,08,25,12,55,16.60
2014,08,25,12,56,16.60
2014,08,25,12,57,16.60
2014,08,25,12,58,16.60
2014,08,25,12,59,16.60
2014,08,25,13,00,16.60
